Regional & State Weather Roundups


086 
ASUS43 KEAX 172310
RWREAX
WEATHER ROUNDUP FOR EASTERN KANSAS AND NORTHWEST MISSOURI
NATIONAL WEATHER SERVICE KANSAS CITY/PLEASANT HILL MO
500 PM CST SAT FEB 17 2018
KSZ040-057-103>105-MOZ028-029-037-043-180000-
...KANSAS CITY METROPOLITAN AREA...
  
CITY           SKY/WX    TMP DP  RH WIND       PRES   REMARKS
K.C. INTL      CLEAR     52  19  27 N10       30.11S                  
K.C. DOWNTOWN  CLEAR     53  19  26 NW3       30.11R                  
LEES SUMMIT    CLEAR     52  19  27 NW6       30.11S                  
OLATHE - IXD   SUNNY     52  19  27 N8        30.12R                  
OLATHE - OJC   CLEAR     52  18  26 NW9       30.11R                  
LAWRENCE       SUNNY     54  19  25 W9        30.12R                  
$$
 
MOZ001>008-011>017-020>025-030>033-038>040-044>046-053-054-180000-
...NORTHERN AND CENTRAL MISSOURI...
  
CITY           SKY/WX    TMP DP  RH WIND       PRES   REMARKS
ST. JOSEPH     CLEAR     51  23  33 NW8       30.11R                  
MOSBY          CLEAR     52  19  28 NW7       30.11F                  
WARRENSBURG    CLEAR     50  21  32 NW7       30.12R                  
WHITEMAN AFB   CLEAR     52  20  28 NW14      30.07R                  
CLINTON        CLEAR     52  25  35 NW9       30.12S                  
SEDALIA        CLEAR     51  24  34 NW12      30.12R                  
WARSAW         NOT AVBL                                               
CHILLICOTHE      N/A     50  20  30 VRB5      30.11R                  
KIRKSVILLE     CLEAR     45  24  43 NW10      30.09R                  
$$
MOZ041-047>049-056>058-063>065-088>090-097-180000-
...EASTERN AND SOUTHERN MISSOURI...
  
CITY           SKY/WX    TMP DP  RH WIND       PRES   REMARKS
ST. LOUIS INTL PTCLDY    43  37  79 W14G25    30.10R                  
SPIRIT OF STL  CLEAR     44  37  76 W13       30.10R                  
COLUMBIA       CLEAR     50  31  48 W14G20    30.09R                  
JEFFERSON CITY CLEAR     50  34  54 NW9       30.11R                  
ROLLA          CLEAR     46  36  68 NW12      30.11R                  
OSAGE BEACH    CLEAR     49  36  61 VRB5      30.13R                  
SPRINGFIELD    CLEAR     49  38  65 NW6       30.12S                  
BRANSON        PTCLDY    46  37  71 NW6       30.16R                  
JOPLIN         SUNNY     53  38  56 CALM      30.13F                  
WEST PLAINS    CLOUDY    45  40  82 NW8       30.13R                  
$$
IAZ060-094-KSZ022-034>040-054-083-096-NEZ052-066-093-180000- 
...KANSAS...SOUTHEAST NEBRASKA AND IOWA...
  
CITY           SKY/WX    TMP DP  RH WIND       PRES   REMARKS
TOPEKA         SUNNY     55  17  22 NW8       30.11R                  
MANHATTAN      SUNNY     57  14  18 NW6       30.11R                  
EMPORIA        SUNNY     56  16  20 NW12      30.12R                  
CHANUTE        SUNNY     58  17  20 N7        30.13R                  
WICHITA        SUNNY     58  10  15 NE12      30.12S                  
OMAHA          PTCLDY    44  28  53 N10       30.10R                  
LINCOLN        SUNNY     47  24  40 NW9       30.12R                  
FALLS CITY     SUNNY     51  18  27 NW10      30.10R                  
LAMONI         CLEAR     45  23  42 NW21      30.08R                  
DES MOINES     PTCLDY    39  27  62 NW17G24   30.08R WCI  30          
$$